Location: Overspoor
(51.4747°N, 5.6641°E)
Time: 12:36:07
(UTC+02:00)

KKS-1 - Pass Details

Date: 27 June 2022
Orbit: 634 x 649 km, 98.2° (Epoch: 14 August)

Event Time Altitude Azimuth Distance (km) Brightness Sun altitude
Rises 23:43:15 0° 15° (NNE) 2,981 ? -10.9°
Reaches altitude 10° 23:45:29 10° 18° (NNE) 2,065 ? -11.1°
Maximum altitude 23:49:59 75° 104° (ESE) 678 ? -11.4°
Enters shadow 23:54:14 11° 189° (S) 1,956 ? -11.7°
